Regional Weather Roundup
Issued by NWS

Home | Current Version | Previous Version | Graphics & Text | Print | Product List | Glossary On
Versions: 1 2 3 4 5 6 7 8 9 10 11 12 13 14 15 16 17 18 19 20 21 22 23 24 25 26 27 28 29 30 31 32 33 34 35 36 37 38 39 40 41 42 43 44 45 46 47 48 49 50
000
ASUS43 KMKX 301300
RWRWI

WISCONSIN REGIONAL WEATHER ROUNDUP
NATIONAL WEATHER SERVICE MILWAUKEE/SULLIVAN WI
800 AM CDT TUE JUN 30 2015

NOTE: "FAIR" INDICATES FEW OR NO CLOUDS BELOW 12,000 FEET WITH NO
SIGNIFICANT WEATHER AND/OR OBSTRUCTIONS TO VISIBILITY.

WIZ001-002-006>008-014>016-023>028-301400-
NORTHWEST WISCONSIN

CITY           SKY/WX    TMP DP  RH WIND       PRES   REMARKS
SUPERIOR ARPT  CLOUDY    59  55  85 E14G20    29.96R
ASHLAND        CLOUDY    53  53 100 NE9       29.97R
HAYWARD        CLOUDY    56  52  86 NE10      29.96R
SIREN          CLOUDY    60  59  97 CALM      29.94R FOG
CUMBERLAND     PTSUNNY   59  57  94 N3        29.93R
RICE LAKE      CLOUDY    61  58  89 CALM      29.93R
CHETEK         PTSUNNY   62  59  88 N6        29.92R
LADYSMITH      CLOUDY    60  56  89 N8        29.93R
EAU CLAIRE     NOT AVBL
MENOMONIE      CLOUDY    61  59  94 NE5       29.91R
NEW RICHMOND   PTSUNNY   61  60  98 NE8       29.93R
OSCEOLA        PTSUNNY   60  60 100 N3        29.96R FOG
$$

WIZ003>005-009-010-017-018-301400-
NORTH CENTRAL WISCONSIN

CITY           SKY/WX    TMP DP  RH WIND       PRES   REMARKS
MANITOWISH WTR CLOUDY    51  51 100 N7        29.92R FOG
ARBOR VITAE    CLOUDY    57  53  87 NE8       29.92R
WOODRUFF       CLOUDY    57  53  87 NE8       29.92R
RHINELANDER    CLOUDY    56  52  86 N7        29.91R
EAGLE RIVER    DRIZZLE   52  52  99 N8        29.90R
LAND O LAKES   CLOUDY    51  51  97 N8        29.92R FOG
PHILLIPS       CLOUDY    55  53  92 N9        29.91R
TOMAHAWK       CLOUDY    56  54  92 N6        29.91R
MEDFORD        CLOUDY    60  57  90 N6        29.90R
MERRILL        CLOUDY    59  57  92 N13G18    29.89R
$$

WIZ029-030-035-036-043>047-301400-
CENTRAL WISCONSIN

CITY           SKY/WX    TMP DP  RH WIND       PRES   REMARKS
WAUSAU         CLOUDY    62  56  80 N7G20     29.87R
MOSINEE        NOT AVBL
MARSHFIELD     MOSUNNY   64  57  78 N10       29.88R
STEVENS POINT  MOSUNNY   60  57  90 NW5       29.87R
WAUPACA        SUNNY     63  62  99 NW5       29.85R
WAUTOMA        NOT AVBL
WISC RAPIDS    MOSUNNY   63  58  83 NW7       29.88R
CAMP DOUGLAS   FOG       59  59 100 NW6       29.88R VSB 1
$$

WIZ011>013-019>022-031-037>040-048>050-301400-
NORTHEAST WISCONSIN

CITY           SKY/WX    TMP DP  RH WIND       PRES   REMARKS
ANTIGO         CLOUDY    58  56  91 N10       29.87R
SHAWANO        MOSUNNY   64  60  88 CALM      29.84R
OCONTO         CLOUDY    62  62 100 N6        29.81R
STURGEON BAY   CLOUDY    63  57  82 NW7       29.83R
GREEN BAY      CLOUDY    64  61  90 N13       29.81S
MANITOWOC      NOT AVBL
APPLETON       CLOUDY    63  61  94 N9        29.83R
CLINTONVILLE   MOSUNNY  N/A N/A N/A N8        29.83R
OSHKOSH        CLOUDY    63  59  87 NW8       29.82R
$$

WIZ032>034-041-042-053>061-301400-
SOUTHWEST WISCONSIN

CITY           SKY/WX    TMP DP  RH WIND       PRES   REMARKS
LA CROSSE      CLOUDY    62  60  93 N6        29.89R FOG
SPARTA         CLOUDY    57  56  97 N5        29.90R FOG
VIROQUA        CLOUDY    60  60 100 N6        29.89R VSB 1
BOSCOBEL       PTSUNNY   62  60  93 CALM      29.86F FOG
PRAIRIE DU CHI SUNNY     61  59  95 CALM      29.86R
PLATTEVILLE    SUNNY     61  61  99 NW5       29.86R
$$

WIZ056-057-062-063-064-067-068-301400-
SOUTH CENTRAL WISCONSIN

CITY           SKY/WX    TMP DP  RH WIND       PRES   REMARKS
REEDSBURG      CLOUDY    58  58  99 N7        29.87R FOG
BARABOO/DELLS  FOG       59  58  96 NW3       29.86R VSB 3/4
LONE ROCK      CLOUDY    61  59  93 CALM      29.87R
MINERAL POINT  SUNNY     61  61 100 NW6       29.86R FOG
MADISON        CLOUDY    62  59  90 NW5       29.84R FOG
MIDDLETON      CLOUDY    62  61  98 NW5       29.85R
WATERTOWN      CLOUDY    59  59 100 NW5       29.82R FOG
MONROE         MOSUNNY   61  59  94 NW7       29.84R
JANESVILLE     PTSUNNY   63  61  94 NW7       29.83S FOG
$$

WIZ051-052-058>065-066-070>072-301400-
SOUTHEAST WISCONSIN

CITY           SKY/WX    TMP DP  RH WIND       PRES   REMARKS
MILWAUKEE      PTSUNNY   64  58  80 NW9       29.79R
WAUKESHA       PTSUNNY   59  57  94 NW6       29.82R FOG
MILWAUKEE/TIMM CLOUDY    61  57  88 NW13      29.81R FOG
RACINE         SUNNY     64  59  83 W9        29.81R
BURLINGTON     MOSUNNY   60  58  93 NW7       29.81R
KENOSHA        SUNNY     64  60  87 NW8       29.81R
FOND DU LAC    CLOUDY    63  60  90 NW13      29.82R
SHEBOYGAN      PTSUNNY   65  61  87 NW10      29.78R FOG
WEST BEND      CLOUDY    61  59  94 NW8       29.80S
JUNEAU         CLOUDY    60  59  96 NW6       29.83R FOG
$$

LSZ147-162-301400-
LAKE SUPERIOR

STATION/POSITION TIME  TEMP    WIND        PRES    WAVE
                       AIR SEA DIR/SP/G            HT/PER
                 (UTC) (F)     (DEG/KT/KT) (MB)    (FT/S)
W MID LAKE BUOY  1150   42 38  350/  4/  6 1014.7R   1
DEVILS ISLAND    1200   53      40/ 13/ 14 1014.9R
SAXON HARBOR     1240   55      50/ 18/ 20 1014.2R
$$

LMZ867-665-643>646-301400-
LAKE MICHIGAN

STATION/POSITION TIME  TEMP    WIND        PRES    WAVE
                       AIR SEA DIR/SP/G            HT/PER
                 (UTC) (F)     (DEG/KT/KT) (MB)    (FT/S)
CHAMBERS ISLAND  1200   63     310/  9/ 13 1009.1R
S GREEN BAY BUOY 1200   65 71   20/ 12/ 16 1010.4R
N MID LAKE BUOY  1150   57 54  200/  4/  6 1009.0R   1
NORTHPORT PIER   1200   61     270/  2/  4 1008.8S
SISTER BAY       1214   62     320/  3/  5   N/A
ALGOMA LAKESHORE 1210          340/  9/ 12   N/A
KEWAUNEE LAKESHO 1200   59      30/  1/  3 1007.7R
SHEBOYGAN LAKESH 1200   63     290/  6/  9 1008.4R
PORT WASHINGTON  1210   63     290/  5/  8 1009.1R
ATWATER BUOY     1200   61 58  330/  6/  6 1009.9R
MILWAUKEE LAKESH 1200   63     300/  6/  8   N/A
KENOSHA   LAKESH 1200   63     280/  7/ 10 1008.8R
$$

TC  - TEMPERATURE IN CELSIUS
VSB - VISIBILITY IN STATUTE MILES
WCI - WIND CHILL INDEX
HX  - HEAT INDEX




USA.gov is the U.S. government's official web portal to all federal, state and local government web resources and services.